{"data":{"norad_id":32790,"intl_designator":"2008-021H","name":"CANX-2","alt_names":[],"object_type":"PAYLOAD","status":"ACTIVE","operator":null,"country":"CA","launch_date":"2008-04-28","launch_site_code":"SRILR","launch_vehicle":null,"mission":null,"orbit_class":"UNKNOWN","rcs_meters":0.0652,"size_class":null,"mass_kg":null,"dimensions":null,"purposes":["tech_demo"],"wikipedia_slug":null,"has_3d_model":false,"image_url":null,"decayed_at":null,"tle_current":{"epoch":"2026-09-19T09:02:11.561280Z","epoch_age_seconds":111538,"freshness":"FRESH","line1":"1 32790U 08021H   26262.37652270  .00002936  00000+0  20477-3 0  9994","line2":"2 32790  97.8747 244.0777 0011661  86.3399 273.9161 15.06167348998982","mean_motion":15.06167348,"eccentricity":0.0011661,"inclination_deg":97.8747,"raan_deg":244.0777,"arg_perigee_deg":86.3399,"mean_anomaly_deg":273.9161,"bstar":0.00020477,"rev_number":99898,"period_min":95.606905959828,"perigee_km":539.84821405107,"apogee_km":556.0011751352,"semimajor_km":6926.0616945931,"source":"CELESTRAK","updated_at":"2026-09-20T09:00:47.986832Z"}}}